Terug naar catalogus

STARLINK-34363

ActiefCommunicatieVLEO
NORAD 64497·PAYLOAD·🇺🇸 United States

Gelanceerd Jun 23, 2025 vanaf Cape Canaveral Space Force Station

Loading…

Volgende Passages (komende 24 uur)

TLE

VersSource: CelesTrak SupGP

Epoch: Sep 15, 2026, 02:32 UTC

1 64497C 25133AB  26258.10604167  .00046856  00000+0  13844-2 0  2580
2 64497  53.1580 311.1138 0001209  93.4936 187.4799 15.34366917    19

Volg STARLINK-34363 in realtime met AllMySat

Download on the App Store